Location: Tel Aviv
(32.0670°N, 34.7670°E)
Time: 09:50:14
(UTC+03:00)

Hubble Space Telescope - Visible Passes

Search period start: 20 April 2024 00:00
Search period end: 30 April 2024 00:00
Orbit: 513 x 517 km, 28.5° (Epoch: 19 April)

Date Brightness Start Highest point End Pass type
(mag) Time Alt. Az. Time Alt. Az. Time Alt. Az.
20 Apr 2.6 20:18:17 10° WSW 20:21:05 18° SSW 20:23:04 13° SSE visible
21 Apr 2.9 20:00:21 10° WSW 20:02:53 16° SSW 20:05:25 10° SSE visible
22 Apr 3.1 19:42:30 10° WSW 19:44:40 14° SSW 19:46:50 10° S visible
